When you browse on this site, cookies collect data to enhance your experience and personalize the content and advertising you see.
Visit our Privacy Policy to learn more. By continuing to use the site, you agree to this use of cookies and data.
  • In Switzerland
  • List of Countries
  • For 7 days
  • Water Temperature
  • Satellite Maps
  • Weather Map
  • Weather Widgets
  • user-avatar
    Login

    Hourly Weather Landau in der Pfalz

    Today, 26 May, Sunday

    Time Temperature Precipitation Wind Pressure Humidity
    00:00 +13°C° 0 mm 1 mps 748 mmHg 79%
    01:00 +12°C° 0 mm 1 mps 748 mmHg 82%
    02:00 +12°C° 0 mm 1 mps 748 mmHg 83%
    03:00 +11°C° 0 mm 1 mps 748 mmHg 85%
    04:00 +11°C° 0 mm 1 mps 748 mmHg 86%
    05:00 +12°C° 0 mm 1 mps 748 mmHg 84%
    06:00 +13°C° 0 mm 1 mps 748 mmHg 82%
    07:00 +14°C° 0 mm 1 mps 748 mmHg 80%
    08:00 +16°C° 0 mm 2 mps 748 mmHg 73%
    09:00 +18°C° 0 mm 2 mps 747 mmHg 67%
    10:00 +19°C° 0 mm 2 mps 747 mmHg 60%
    11:00 +20°C° 0 mm 2 mps 747 mmHg 56%
    12:00 +21°C° 0 mm 3 mps 747 mmHg 52%
    13:00 +22°C° 0 mm 3 mps 746 mmHg 48%
    14:00 +22°C° 0 mm 3 mps 746 mmHg 49%
    15:00 +22°C° 0 mm 3 mps 746 mmHg 49%
    16:00 +22°C° 0 mm 3 mps 745 mmHg 49%
    17:00 +21°C° 0 mm 3 mps 745 mmHg 55%
    18:00 +20°C° 0 mm 3 mps 745 mmHg 61%
    19:00 +19°C° 0 mm 2 mps 744 mmHg 67%
    20:00 +18°C° 0 mm 2 mps 744 mmHg 73%
    21:00 +16°C° 0 mm 2 mps 745 mmHg 79%
    22:00 +15°C° 0 mm 2 mps 745 mmHg 85%
    23:00 +14°C° 0 mm 2 mps 745 mmHg 86%

    Tomorrow, 27 May, Monday

    Time Temperature Precipitation Wind Pressure Humidity
    00:00 +14°C° 0 mm 2 mps 745 mmHg 87%
    01:00 +14°C° 0 mm 2 mps 745 mmHg 88%
    02:00 +14°C° 0 mm 2 mps 744 mmHg 89%
    03:00 +13°C° 0 mm 2 mps 744 mmHg 89%
    04:00 +13°C° 0 mm 2 mps 744 mmHg 90%
    05:00 +14°C° 0 mm 2 mps 743 mmHg 88%
    06:00 +14°C° 0 mm 3 mps 743 mmHg 86%
    07:00 +14°C° 0 mm 3 mps 743 mmHg 84%
    08:00 +16°C° 0 mm 3 mps 743 mmHg 82%
    09:00 +17°C° 0 mm 3 mps 743 mmHg 80%
    10:00 +18°C° 0 mm 3 mps 744 mmHg 78%
    11:00 +18°C° 0.1 mm 3 mps 743 mmHg 76%
    12:00 +19°C° 0.1 mm 3 mps 743 mmHg 73%
    13:00 +20°C° 0.1 mm 4 mps 743 mmHg 71%
    14:00 +20°C° 0.1 mm 4 mps 742 mmHg 70%
    15:00 +20°C° 0.1 mm 3 mps 742 mmHg 69%
    16:00 +20°C° 0.1 mm 3 mps 742 mmHg 68%
    17:00 +19°C° 0 mm 3 mps 742 mmHg 71%
    18:00 +19°C° 0 mm 2 mps 742 mmHg 73%
    19:00 +18°C° 0 mm 2 mps 742 mmHg 76%
    20:00 +17°C° 0.1 mm 2 mps 742 mmHg 80%
    21:00 +16°C° 0.1 mm 1 mps 742 mmHg 85%
    22:00 +15°C° 0.1 mm 1 mps 742 mmHg 89%
    23:00 +14°C° 0 mm 1 mps 742 mmHg 90%

    Day after tomorrow, 28 May, Tuesday

    Time Temperature Precipitation Wind Pressure Humidity
    00:00 +14°C° 0 mm 1 mps 742 mmHg 91%
    01:00 +13°C° 0 mm 1 mps 742 mmHg 91%
    02:00 +13°C° 0.1 mm 1 mps 742 mmHg 90%
    03:00 +13°C° 0.1 mm 1 mps 742 mmHg 89%
    04:00 +13°C° 0.1 mm 1 mps 742 mmHg 88%
    05:00 +13°C° 0.1 mm 2 mps 742 mmHg 87%
    06:00 +13°C° 0.1 mm 2 mps 742 mmHg 86%
    07:00 +12°C° 0.1 mm 3 mps 742 mmHg 85%
    08:00 +13°C° 0 mm 3 mps 742 mmHg 78%
    09:00 +14°C° 0 mm 4 mps 742 mmHg 70%
    10:00 +15°C° 0 mm 4 mps 742 mmHg 63%
    11:00 +17°C° 0.3 mm 4 mps 742 mmHg 62%
    12:00 +17°C° 0.3 mm 4 mps 742 mmHg 62%
    13:00 +18°C° 0.3 mm 4 mps 741 mmHg 61%
    14:00 +18°C° 0.3 mm 4 mps 741 mmHg 61%
    15:00 +18°C° 0.3 mm 4 mps 741 mmHg 61%
    16:00 +18°C° 0.3 mm 4 mps 741 mmHg 61%
    17:00 +17°C° 0.3 mm 4 mps 742 mmHg 67%
    18:00 +16°C° 0.3 mm 3 mps 742 mmHg 72%
    19:00 +15°C° 0.3 mm 2 mps 742 mmHg 78%
    20:00 +14°C° 0.2 mm 2 mps 743 mmHg 81%
    21:00 +13°C° 0.2 mm 2 mps 743 mmHg 84%
    22:00 +12°C° 0.2 mm 2 mps 744 mmHg 87%
    23:00 +10°C° 0 mm 2 mps 744 mmHg 89%

    29 May, Wednesday

    Time Temperature Precipitation Wind Pressure Humidity
    00:00 +10°C° 0 mm 2 mps 744 mmHg 90%
    01:00 +9°C° 0 mm 2 mps 745 mmHg 92%
    02:00 +9°C° 0 mm 2 mps 745 mmHg 92%
    03:00 +8°C° 0 mm 2 mps 745 mmHg 93%
    04:00 +8°C° 0 mm 2 mps 746 mmHg 94%
    05:00 +9°C° 0 mm 2 mps 746 mmHg 92%
    06:00 +9°C° 0 mm 2 mps 747 mmHg 90%
    07:00 +10°C° 0 mm 2 mps 747 mmHg 88%
    08:00 +12°C° 0 mm 2 mps 747 mmHg 85%
    09:00 +12°C° 0 mm 2 mps 748 mmHg 83%
    10:00 +13°C° 0 mm 2 mps 748 mmHg 81%
    11:00 +14°C° 0.1 mm 2 mps 749 mmHg 76%
    12:00 +16°C° 0.1 mm 2 mps 749 mmHg 70%
    13:00 +17°C° 0.1 mm 2 mps 749 mmHg 65%
    14:00 +17°C° 0.4 mm 2 mps 749 mmHg 66%
    15:00 +17°C° 0.4 mm 2 mps 749 mmHg 67%
    16:00 +18°C° 0.4 mm 3 mps 749 mmHg 67%
    17:00 +17°C° 0.3 mm 2 mps 749 mmHg 70%
    18:00 +17°C° 0.3 mm 2 mps 750 mmHg 73%
    19:00 +16°C° 0.3 mm 1 mps 750 mmHg 75%
    20:00 +15°C° 0 mm 1 mps 751 mmHg 78%
    21:00 +13°C° 0 mm 1 mps 751 mmHg 80%
    22:00 +12°C° 0 mm 1 mps 752 mmHg 83%
    23:00 +11°C° 0 mm 1 mps 752 mmHg 85%

    30 May, Thursday

    Time Temperature Precipitation Wind Pressure Humidity
    00:00 +11°C° 0 mm 1 mps 752 mmHg 86%
    01:00 +10°C° 0 mm 1 mps 752 mmHg 88%
    02:00 +10°C° 0 mm 1 mps 752 mmHg 89%
    03:00 +10°C° 0 mm 1 mps 752 mmHg 90%
    04:00 +9°C° 0 mm 1 mps 753 mmHg 92%
    05:00 +10°C° 0 mm 1 mps 753 mmHg 90%
    06:00 +10°C° 0 mm 2 mps 753 mmHg 88%
    07:00 +13°C° 0 mm 2 mps 753 mmHg 86%
    08:00 +14°C° 0 mm 2 mps 753 mmHg 78%
    09:00 +16°C° 0 mm 3 mps 753 mmHg 70%
    10:00 +18°C° 0 mm 3 mps 753 mmHg 62%
    11:00 +19°C° 0 mm 4 mps 753 mmHg 59%
    12:00 +20°C° 0 mm 4 mps 752 mmHg 57%
    13:00 +21°C° 0 mm 4 mps 752 mmHg 54%
    14:00 +21°C° 0 mm 4 mps 752 mmHg 55%
    15:00 +21°C° 0 mm 4 mps 752 mmHg 56%
    16:00 +21°C° 0 mm 5 mps 752 mmHg 57%
    17:00 +20°C° 0 mm 4 mps 752 mmHg 63%
    18:00 +19°C° 0 mm 4 mps 752 mmHg 68%
    19:00 +18°C° 0 mm 3 mps 752 mmHg 74%
    20:00 +18°C° 0.1 mm 3 mps 752 mmHg 78%
    21:00 +17°C° 0.1 mm 3 mps 752 mmHg 82%
    22:00 +16°C° 0.1 mm 3 mps 752 mmHg 87%
    23:00 +16°C° 1.8 mm 3 mps 752 mmHg 89%

    31 May, Friday

    Time Temperature Precipitation Wind Pressure Humidity
    00:00 +16°C° 1.8 mm 3 mps 751 mmHg 92%
    01:00 +16°C° 1.8 mm 3 mps 751 mmHg 94%
    02:00 +14°C° 0.8 mm 3 mps 751 mmHg 94%
    03:00 +14°C° 0.8 mm 3 mps 751 mmHg 94%
    04:00 +14°C° 0.8 mm 3 mps 751 mmHg 94%
    05:00 +16°C° 0.1 mm 3 mps 751 mmHg 93%
    06:00 +16°C° 0.1 mm 3 mps 751 mmHg 92%
    07:00 +16°C° 0.1 mm 3 mps 751 mmHg 91%
    08:00 +17°C° 0.4 mm 3 mps 752 mmHg 89%
    09:00 +17°C° 0.4 mm 3 mps 752 mmHg 87%
    10:00 +18°C° 0.4 mm 3 mps 753 mmHg 85%
    11:00 +18°C° 1.1 mm 3 mps 753 mmHg 84%
    12:00 +18°C° 1.1 mm 4 mps 753 mmHg 82%
    13:00 +19°C° 1.1 mm 4 mps 753 mmHg 81%
    14:00 +19°C° 0.6 mm 4 mps 754 mmHg 78%
    15:00 +19°C° 0.6 mm 4 mps 754 mmHg 75%
    16:00 +19°C° 0.6 mm 4 mps 754 mmHg 72%
    17:00 +19°C° 0 mm 4 mps 755 mmHg 70%
    18:00 +18°C° 0 mm 3 mps 755 mmHg 68%
    19:00 +18°C° 0 mm 3 mps 755 mmHg 66%
    20:00 +16°C° 0 mm 3 mps 756 mmHg 66%
    21:00 +14°C° 0 mm 3 mps 757 mmHg 65%
    22:00 +12°C° 0 mm 3 mps 757 mmHg 65%
    23:00 +12°C° 0 mm 2 mps 758 mmHg 66%
    Show more